Hlavní strana
METAR-TAF:

METAR-TAF

Letiště :

Franceville, Gabon

zeměpisná šířka: 01-39S, zeměpisná délka: 013-26E, výška: 441 m

Aktuální stav počasí

Zpráva byla vytvořena před 24 minutami, v 14:00 UTC
Jižní vítr 8 kt, proměnlivý mezi jihovýchodním a jihozápadním
Teplota 27°C
Vlhkost vzduchu 62%
Tlak 1015 hPa
Viditelnost 10 km a více
Polojasno ve výšce 1600 ft
Zataženo ve výšce 3300 ft

METAR: FOON 201400Z 19008KT 140V220 9999 SCT016 OVC033 27/19 Q1015

Čas: 15:24 (14:24 UTC)


TAF: chybějící

Stav a předpovědi počasí z více než 4 000 letišť (zprávy METAR a TAF).

Červené a žluté tečky na mapě představují dostupné meteorologické stanice.

Když kurzor umístíte na tečku, zobrazí se název stanice.

Pak kliknutím zobrazíte stav a předpověď počasí.

Chcete-li změnit mapu, kliknutím na zelené tlačítko se znaménkem +mapu přiblížíte, kliknutím na zelené tlačítko se znaménkem – mapu oddálíte a kliknutím na zelené šipky přejdete na sousední mapy.


METAR-TAF: